Find Starlink 1531

NORAD ID: 46572 Int'l Des: 2020-070 Owner: SPXS Country: US Constellation: starlink decayed
LEOCIRCULAR

Re-entered — Jul 6, 2026

正在加载3D地球...

About Starlink 1531

Starlink 1531 (NORAD 46572) is a starlink constellation satellite (v1.0) launched Oct 6, 2020 by SPXS of US. It re-entered the atmosphere on Jul 6, 2026. with a mass of 260.00 kg.

高度历史

Loading altitude history...

两行轨道根数

1 46572U 20070AS 26186.80053744 .05982755 12170-4 12400-2 0 9992
2 46572 53.0273 266.5046 0011444 320.0984 39.9216 16.30106579318702
Epoch: Jul 5, 2026 • Age: 489 hours

当前状态

Position data unavailable
发射日期 Oct 6, 2020
运行时间 5.7 years
衰减日期 Jul 6, 2026
类型 internet

技术详情

分类 Payload
质量 260.00 kg
干质量 248.00 kg
总质量 260.00 kg
长度 0.20 m
直径 2.80 m
跨度 9.00 m
形状 Box + pan
制造商 SPXS
平台类型 Starlink
阶段状态 Unknown Transfer Status
所有者/国家 SPXS/US

Most Searched